Time,TemperatureF,DewpointF,PressureIn,WindDirection,WindDirectionDegrees,WindSpeedMPH,WindSpeedGustMPH,Humidity,HourlyPrecipIn,Conditions,Clouds,dailyrainin,SoftwareType,DateUTC
2013-01-03 00:00:00,30.7,26.4,30.18,West,270,2.7,-999.0,84,-99.99,,,0.00,Acu-Link.com,2013-01-03 06:00:00,
2013-01-03 00:15:00,30.7,26.4,30.18,West,270,2.7,-999.0,84,-99.99,,,0.00,Acu-Link.com,2013-01-03 06:15:00,
2013-01-03 00:30:00,30.7,26.4,30.18,West,270,3.7,-999.0,84,-99.99,,,0.00,Acu-Link.com,2013-01-03 06:30:00,
2013-01-03 00:46:00,30.7,26.2,30.18,West,270,1.7,-999.0,83,-99.99,,,0.00,Acu-Link.com,2013-01-03 06:46:00,
2013-01-03 01:01:00,30.7,26.2,30.19,NNW,337,3.2,-999.0,83,-99.99,,,0.00,Acu-Link.com,2013-01-03 07:01:00,
2013-01-03 01:16:00,30.9,26.4,30.19,West,270,3.7,-999.0,83,-99.99,,,0.00,Acu-Link.com,2013-01-03 07:16:00,
2013-01-03 01:31:00,31.1,26.3,30.18,NW,315,3.2,-999.0,82,-99.99,,,0.00,Acu-Link.com,2013-01-03 07:31:00,
2013-01-03 01:46:00,30.9,26.1,30.19,NNW,337,5.8,-999.0,82,-99.99,,,0.00,Acu-Link.com,2013-01-03 07:46:00,
2013-01-03 02:02:00,30.9,25.8,30.20,WNW,292,4.2,-999.0,81,-99.99,,,0.00,Acu-Link.com,2013-01-03 08:02:00,
2013-01-03 02:17:00,30.7,25.6,30.21,NE,45,1.7,-999.0,81,-99.99,,,0.00,Acu-Link.com,2013-01-03 08:17:00,
2013-01-03 02:32:00,30.6,25.2,30.21,WNW,292,3.7,-999.0,80,-99.99,,,0.00,Acu-Link.com,2013-01-03 08:32:00,
2013-01-03 02:47:00,30.4,24.7,30.22,West,270,4.2,-999.0,79,-99.99,,,0.00,Acu-Link.com,2013-01-03 08:47:00,
2013-01-03 03:03:00,29.8,24.1,30.22,WNW,292,5.3,-999.0,79,-99.99,,,0.00,Acu-Link.com,2013-01-03 09:03:00,
2013-01-03 03:18:00,29.1,23.7,30.23,West,270,3.7,-999.0,80,-99.99,,,0.00,Acu-Link.com,2013-01-03 09:18:00,
2013-01-03 03:33:00,28.8,23.7,30.23,West,270,2.2,-999.0,81,-99.99,,,0.00,Acu-Link.com,2013-01-03 09:33:00,
2013-01-03 03:48:00,28.8,24.0,30.23,NNW,337,3.7,-999.0,82,-99.99,,,0.00,Acu-Link.com,2013-01-03 09:48:00,
2013-01-03 04:03:00,28.8,24.0,30.23,NE,45,6.3,-999.0,82,-99.99,,,0.00,Acu-Link.com,2013-01-03 10:03:00,
2013-01-03 04:18:00,29.1,23.7,30.23,West,270,4.2,-999.0,80,-99.99,,,0.00,Acu-Link.com,2013-01-03 10:18:00,
2013-01-03 04:34:00,29.3,23.9,30.23,West,270,5.3,-999.0,80,-99.99,,,0.00,Acu-Link.com,2013-01-03 10:34:00,
2013-01-03 04:49:00,29.3,23.9,30.25,SW,225,1.7,-999.0,80,-99.99,,,0.00,Acu-Link.com,2013-01-03 10:49:00,
2013-01-03 05:04:00,29.1,23.7,30.24,NNW,337,3.2,-999.0,80,-99.99,,,0.00,Acu-Link.com,2013-01-03 11:04:00,
2013-01-03 05:19:00,29.1,24.0,30.24,WSW,247,2.2,-999.0,81,-99.99,,,0.00,Acu-Link.com,2013-01-03 11:19:00,
2013-01-03 05:34:00,29.1,24.0,30.26,West,270,4.2,-999.0,81,-99.99,,,0.00,Acu-Link.com,2013-01-03 11:34:00,
2013-01-03 05:50:00,28.9,23.5,30.24,WNW,292,2.7,-999.0,80,-99.99,,,0.00,Acu-Link.com,2013-01-03 11:50:00,
2013-01-03 06:05:00,28.9,23.5,30.25,East,90,2.7,-999.0,80,-99.99,,,0.00,Acu-Link.com,2013-01-03 12:05:00,
2013-01-03 06:20:00,28.9,23.5,30.25,WSW,247,2.7,-999.0,80,-99.99,,,0.00,Acu-Link.com,2013-01-03 12:20:00,
2013-01-03 06:35:00,28.9,23.2,30.27,West,270,3.7,-999.0,79,-99.99,,,0.00,Acu-Link.com,2013-01-03 12:35:00,
2013-01-03 06:50:00,28.8,23.4,30.26,West,270,2.7,-999.0,80,-99.99,,,0.00,Acu-Link.com,2013-01-03 12:50:00,
2013-01-03 07:06:00,28.8,23.4,30.28,West,270,5.8,-999.0,80,-99.99,,,0.00,Acu-Link.com,2013-01-03 13:06:00,
2013-01-03 07:21:00,28.6,23.5,30.28,SSW,202,1.1,-999.0,81,-99.99,,,0.00,Acu-Link.com,2013-01-03 13:21:00,
2013-01-03 07:36:00,28.6,23.8,30.27,WNW,292,2.2,-999.0,82,-99.99,,,0.00,Acu-Link.com,2013-01-03 13:36:00,
2013-01-03 07:52:00,28.4,23.6,30.30,NW,315,4.7,-999.0,82,-99.99,,,0.00,Acu-Link.com,2013-01-03 13:52:00,
2013-01-03 08:07:00,28.4,23.0,30.30,NNE,22,1.1,-999.0,80,-99.99,,,0.00,Acu-Link.com,2013-01-03 14:07:00,
2013-01-03 08:23:00,28.6,23.2,30.29,WNW,292,1.7,-999.0,80,-99.99,,,0.00,Acu-Link.com,2013-01-03 14:23:00,
2013-01-03 08:38:00,27.1,22.6,30.32,ESE,112,4.7,-999.0,83,-99.99,,,0.00,Acu-Link.com,2013-01-03 14:38:00,
2013-01-03 08:54:00,26.6,22.1,30.33,NNE,22,2.7,-999.0,83,-99.99,,,0.00,Acu-Link.com,2013-01-03 14:54:00,
2013-01-03 09:09:00,26.6,21.6,30.33,West,270,3.2,-999.0,81,-99.99,,,0.00,Acu-Link.com,2013-01-03 15:09:00,
2013-01-03 09:24:00,26.6,21.3,30.34,WNW,292,4.7,-999.0,80,-99.99,,,0.00,Acu-Link.com,2013-01-03 15:24:00,
2013-01-03 09:39:00,26.8,21.2,30.35,West,270,2.2,-999.0,79,-99.99,,,0.00,Acu-Link.com,2013-01-03 15:39:00,
2013-01-03 09:54:00,27.0,20.8,30.36,SSW,202,2.7,-999.0,77,-99.99,,,0.00,Acu-Link.com,2013-01-03 15:54:00,
2013-01-03 10:10:00,26.4,19.9,30.36,SSW,202,3.7,-999.0,76,-99.99,,,0.00,Acu-Link.com,2013-01-03 16:10:00,
2013-01-03 10:25:00,27.1,19.6,30.37,ESE,112,2.7,-999.0,73,-99.99,,,0.00,Acu-Link.com,2013-01-03 16:25:00,
2013-01-03 10:40:00,27.0,19.2,30.38,WNW,292,2.7,-999.0,72,-99.99,,,0.00,Acu-Link.com,2013-01-03 16:40:00,
2013-01-03 10:55:00,27.9,18.7,30.38,SSW,202,2.2,-999.0,68,-99.99,,,0.00,Acu-Link.com,2013-01-03 16:55:00,
2013-01-03 11:10:00,25.2,16.5,30.38,SSE,157,2.2,-999.0,69,-99.99,,,0.00,Acu-Link.com,2013-01-03 17:10:00,
2013-01-03 11:26:00,26.6,16.8,30.38,WNW,292,4.2,-999.0,66,-99.99,,,0.00,Acu-Link.com,2013-01-03 17:26:00,
2013-01-03 11:41:00,27.0,16.8,30.36,WNW,292,2.7,-999.0,65,-99.99,,,0.00,Acu-Link.com,2013-01-03 17:41:00,
2013-01-03 11:56:00,28.2,17.6,30.36,NNE,22,2.7,-999.0,64,-99.99,,,0.00,Acu-Link.com,2013-01-03 17:56:00,
2013-01-03 12:11:00,28.2,17.6,30.36,West,270,3.7,-999.0,64,-99.99,,,0.00,Acu-Link.com,2013-01-03 18:11:00,
2013-01-03 12:27:00,28.6,18.4,30.35,East,90,1.7,-999.0,65,-99.99,,,0.00,Acu-Link.com,2013-01-03 18:27:00,
2013-01-03 12:42:00,28.9,17.9,30.34,ESE,112,2.2,-999.0,63,-99.99,,,0.00,Acu-Link.com,2013-01-03 18:42:00,
2013-01-03 12:57:00,28.8,18.2,30.34,NE,45,2.2,-999.0,64,-99.99,,,0.00,Acu-Link.com,2013-01-03 18:57:00,
2013-01-03 13:12:00,30.7,19.2,30.34,SSE,157,0.0,-999.0,62,-99.99,,,0.00,Acu-Link.com,2013-01-03 19:12:00,
2013-01-03 13:58:00,31.3,19.0,30.33,West,270,3.2,-999.0,60,-99.99,,,0.00,Acu-Link.com,2013-01-03 19:58:00,
2013-01-03 14:13:00,29.3,18.7,30.32,WSW,247,1.7,-999.0,64,-99.99,,,0.00,Acu-Link.com,2013-01-03 20:13:00,
2013-01-03 14:29:00,29.8,19.1,30.32,West,270,3.2,-999.0,64,-99.99,,,0.00,Acu-Link.com,2013-01-03 20:29:00,
2013-01-03 14:44:00,30.0,19.7,30.33,NNE,22,1.1,-999.0,65,-99.99,,,0.00,Acu-Link.com,2013-01-03 20:44:00,
2013-01-03 14:59:00,28.9,19.7,30.33,East,90,1.1,-999.0,68,-99.99,,,0.00,Acu-Link.com,2013-01-03 20:59:00,
2013-01-03 15:14:00,30.0,19.7,30.33,West,270,4.2,-999.0,65,-99.99,,,0.00,Acu-Link.com,2013-01-03 21:14:00,
2013-01-03 15:30:00,29.1,19.2,30.33,NW,315,2.7,-999.0,66,-99.99,,,0.00,Acu-Link.com,2013-01-03 21:30:00,
2013-01-03 15:45:00,29.7,19.0,30.34,WNW,292,2.7,-999.0,64,-99.99,,,0.00,Acu-Link.com,2013-01-03 21:45:00,
2013-01-03 16:00:00,29.7,19.4,30.33,NNW,337,2.2,-999.0,65,-99.99,,,0.00,Acu-Link.com,2013-01-03 22:00:00,
2013-01-03 16:15:00,28.6,18.4,30.32,SSE,157,1.1,-999.0,65,-99.99,,,0.00,Acu-Link.com,2013-01-03 22:15:00,
2013-01-03 16:30:00,27.7,17.8,30.31,SW,225,0.0,-999.0,66,-99.99,,,0.00,Acu-Link.com,2013-01-03 22:30:00,
2013-01-03 16:46:00,27.9,18.4,30.31,NW,315,0.0,-999.0,67,-99.99,,,0.00,Acu-Link.com,2013-01-03 22:46:00,
2013-01-03 17:01:00,29.3,18.3,30.32,West,270,0.0,-999.0,63,-99.99,,,0.00,Acu-Link.com,2013-01-03 23:01:00,
2013-01-03 17:16:00,26.4,17.0,30.32,SW,225,0.0,-999.0,67,-99.99,,,0.00,Acu-Link.com,2013-01-03 23:16:00,
2013-01-03 17:31:00,24.1,16.4,30.32,WNW,292,0.0,-999.0,72,-99.99,,,0.00,Acu-Link.com,2013-01-03 23:31:00,
2013-01-03 17:47:00,22.3,14.7,30.32,West,270,0.0,-999.0,72,-99.99,,,0.00,Acu-Link.com,2013-01-03 23:47:00,
2013-01-03 18:02:00,20.5,13.9,30.32,SSW,202,0.0,-999.0,75,-99.99,,,0.00,Acu-Link.com,2013-01-04 00:02:00,
2013-01-03 18:17:00,18.9,13.5,30.32,WNW,292,0.0,-999.0,79,-99.99,,,0.00,Acu-Link.com,2013-01-04 00:17:00,
2013-01-03 18:32:00,17.8,12.4,30.32,WSW,247,0.0,-999.0,79,-99.99,,,0.00,Acu-Link.com,2013-01-04 00:32:00,
2013-01-03 18:47:00,16.7,11.9,30.32,West,270,0.0,-999.0,81,-99.99,,,0.00,Acu-Link.com,2013-01-04 00:47:00,
2013-01-03 19:03:00,16.3,12.1,30.32,West,270,0.0,-999.0,83,-99.99,,,0.00,Acu-Link.com,2013-01-04 01:03:00,
2013-01-03 19:18:00,16.9,13.5,30.32,NNW,337,1.1,-999.0,86,-99.99,,,0.00,Acu-Link.com,2013-01-04 01:18:00,
2013-01-03 19:33:00,18.1,14.9,30.32,SW,225,0.0,-999.0,87,-99.99,,,0.00,Acu-Link.com,2013-01-04 01:33:00,
2013-01-03 19:48:00,18.9,15.4,30.30,SW,225,2.7,-999.0,86,-99.99,,,0.00,Acu-Link.com,2013-01-04 01:48:00,
2013-01-03 20:03:00,19.6,15.6,30.30,North,0,0.0,-999.0,84,-99.99,,,0.00,Acu-Link.com,2013-01-04 02:03:00,
2013-01-03 20:19:00,19.4,15.1,30.32,SW,225,3.2,-999.0,83,-99.99,,,0.00,Acu-Link.com,2013-01-04 02:19:00,
2013-01-03 20:34:00,19.4,15.1,30.30,South,180,3.2,-999.0,83,-99.99,,,0.00,Acu-Link.com,2013-01-04 02:34:00,
2013-01-03 20:49:00,19.4,15.1,30.30,North,0,1.1,-999.0,83,-99.99,,,0.00,Acu-Link.com,2013-01-04 02:49:00,
2013-01-03 21:04:00,19.0,14.7,30.29,South,180,2.2,-999.0,83,-99.99,,,0.00,Acu-Link.com,2013-01-04 03:04:00,
2013-01-03 21:19:00,18.5,14.2,30.29,SSW,202,3.2,-999.0,83,-99.99,,,0.00,Acu-Link.com,2013-01-04 03:19:00,
2013-01-03 21:35:00,18.0,13.7,30.28,SW,225,2.2,-999.0,83,-99.99,,,0.00,Acu-Link.com,2013-01-04 03:35:00,
2013-01-03 21:50:00,17.6,13.6,30.29,WSW,247,2.7,-999.0,84,-99.99,,,0.00,Acu-Link.com,2013-01-04 03:50:00,
2013-01-03 22:05:00,17.4,13.4,30.29,SSW,202,2.2,-999.0,84,-99.99,,,0.00,Acu-Link.com,2013-01-04 04:05:00,
2013-01-03 22:20:00,17.6,13.6,30.29,WSW,247,4.2,-999.0,84,-99.99,,,0.00,Acu-Link.com,2013-01-04 04:20:00,
2013-01-03 22:36:00,17.2,13.5,30.30,South,180,2.2,-999.0,85,-99.99,,,0.00,Acu-Link.com,2013-01-04 04:36:00,
2013-01-03 22:51:00,16.5,12.8,30.30,WSW,247,1.7,-999.0,85,-99.99,,,0.00,Acu-Link.com,2013-01-04 04:51:00,
2013-01-03 23:06:00,15.6,11.9,30.29,WSW,247,0.0,-999.0,85,-99.99,,,0.00,Acu-Link.com,2013-01-04 05:06:00,
2013-01-03 23:21:00,14.7,11.0,30.29,WSW,247,2.2,-999.0,85,-99.99,,,0.00,Acu-Link.com,2013-01-04 05:21:00,
2013-01-03 23:36:00,15.3,12.4,30.28,West,270,3.7,-999.0,88,-99.99,,,0.00,Acu-Link.com,2013-01-04 05:36:00,
2013-01-03 23:52:00,15.8,12.9,30.29,SW,225,1.7,-999.0,88,-99.99,,,0.00,Acu-Link.com,2013-01-04 05:52:00,